Weather History for KLAR - December, 2013

Change the Weather History Date:

Sunday, December 22, 2013

  Actual Average Record
Temperature  
Mean Temperature 18 °F 21 °F  
Max Temperature 28 °F 32 °F 52 °F (1964)
Min Temperature 8 °F 10 °F -34 °F (1989)
Degree Days  
Heating Degree Days 47 44  
Month to date heating degree days 1035 960  
Since 1 July heating degree days 3157 3272  
Cooling Degree Days 0 0  
Month to date cooling degree days 0 0  
Year to date cooling degree days 162 67  
Moisture  
Dew Point 12 °F    
Average Humidity 69    
Maximum Humidity 92    
Minimum Humidity 46    
Precipitation  
Precipitation T in 0.01 in 0.43 in (1948)
Month to date precipitation 0.07 0.24  
Year to date precipitation 11.99 10.84  
Sea Level Pressure  
Sea Level Pressure 30.04 in    
Wind  
Wind Speed 13 mph (NNW)    
Max Wind Speed 32 mph    
Max Gust Speed 39 mph    
Visibility 7 miles    
Events Snow    
T = Trace of Precipitation, MM = Missing Value Source: NWS Daily Summary

Daily Weather History Graph

Daily Weather History Graph

Search for Another Location

Airport or City:

Trip Planner

Search our weather history database for the weather conditions in past years. The results will help you decide how hot, cold, wet, or windy it might be!

Date:

Astronomy

Dec. 22, 2013 Rise Set
Actual Time 7:25 AM MST 4:37 PM MST
Civil Twilight 6:54 AM MST 5:08 PM MST
Nautical Twilight 6:19 AM MST 5:43 PM MST
Astronomical Twilight 5:45 AM MST 6:17 PM MST
Moon 9:55 PM MST (12/22) 10:20 AM MST (12/22)
Length of Visible Light 10h 14m
Length of Day
9h 11m
Waning Gibbous, 76% of the Moon is Illuminated
Dec 22
Waning Gibbous
Dec 25
Last Quarter
Jan 1
New
Jan 7
First Quarter
Jan 15
Full

Hourly Weather History & Observations

Time (MST) Temp. Windchill Dew Point Humidity Pressure Visibility Wind Dir Wind Speed Gust Speed Precip Events Conditions
12:53 AM 15.1 °F 4.2 °F 12.0 °F 88% 29.92 in 10.0 mi NNW 8.1 mph - N/A   Mostly Cloudy
1:53 AM 17.1 °F 5.8 °F 12.9 °F 84% 29.93 in 10.0 mi North 9.2 mph - N/A   Overcast
2:53 AM 15.1 °F 3.3 °F 12.0 °F 88% 29.96 in 10.0 mi NNW 9.2 mph - N/A   Overcast
3:53 AM 16.0 °F 3.6 °F 12.0 °F 84% 29.97 in 10.0 mi NW 10.4 mph - N/A   Overcast
4:53 AM 12.0 °F - 8.1 °F 84% 30.01 in 10.0 mi Calm Calm - N/A   Scattered Clouds
5:53 AM 10.9 °F - 8.1 °F 88% 30.04 in 10.0 mi Calm Calm - N/A   Mostly Cloudy
6:53 AM 9.0 °F 2.4 °F 7.0 °F 92% 30.07 in 10.0 mi SE 3.5 mph - N/A   Clear
7:53 AM 10.9 °F - 8.1 °F 88% 30.06 in 10.0 mi Calm Calm - N/A   Mostly Cloudy
8:53 AM 15.1 °F - 10.0 °F 80% 30.06 in 10.0 mi Calm Calm - N/A   Clear
9:53 AM 21.0 °F - 12.0 °F 68% 30.04 in 10.0 mi Calm Calm - N/A   Overcast
10:53 AM 25.0 °F 10.9 °F 10.0 °F 53% 30.02 in 10.0 mi West 19.6 mph - N/A   Overcast
11:53 AM 26.1 °F 11.0 °F 9.0 °F 49% 29.99 in 10.0 mi West 24.2 mph - N/A   Overcast
12:53 PM 27.0 °F 10.8 °F 10.0 °F 49% 29.97 in 10.0 mi West 29.9 mph 36.8 mph N/A   Overcast
1:53 PM 27.0 °F 10.5 °F 10.0 °F 49% 29.96 in 10.0 mi West 31.1 mph 38.0 mph N/A   Overcast
2:53 PM 26.1 °F 10.7 °F 10.0 °F 51% 29.99 in 10.0 mi West 25.3 mph 33.4 mph N/A   Mostly Cloudy
3:53 PM 26.1 °F 11.0 °F 12.0 °F 55% 30.01 in 10.0 mi West 24.2 mph 33.4 mph N/A   Overcast
4:53 PM 24.1 °F 8.7 °F 12.9 °F 62% 30.07 in 10.0 mi West 23.0 mph 27.6 mph N/A   Overcast
5:53 PM 23.0 °F 13.1 °F 12.9 °F 65% 30.10 in 10.0 mi WNW 9.2 mph - N/A   Overcast
6:53 PM 23.0 °F 9.2 °F 14.0 °F 68% 30.13 in 10.0 mi WNW 17.3 mph - N/A   Overcast
7:53 PM 21.9 °F 13.4 °F 14.0 °F 72% 30.14 in 10.0 mi NW 6.9 mph - N/A   Overcast
8:31 PM 19.4 °F 7.2 °F 15.8 °F 86% 30.00 in 1.8 mi North 11.5 mph - 0.00 in Snow Light Snow
8:38 PM 17.6 °F 5.0 °F 15.8 °F 93% 30.01 in 0.8 mi North 11.5 mph - 0.00 in Snow Light Snow
8:46 PM 17.6 °F 5.7 °F 15.8 °F 93% 30.01 in 1.0 mi North 10.4 mph - 0.00 in Snow Light Snow
8:50 PM 17.6 °F 6.4 °F 15.8 °F 93% 30.01 in 0.8 mi North 9.2 mph - 0.00 in Snow Light Snow
8:53 PM 18.0 °F 6.1 °F 15.1 °F 88% 30.17 in 0.8 mi North 10.4 mph - 0.00 in Snow Light Snow
9:01 PM 17.6 °F 5.7 °F 15.8 °F 93% 30.02 in 2.0 mi North 10.4 mph - 0.00 in Snow Light Snow
9:14 PM 17.6 °F 5.0 °F 15.8 °F 93% 30.02 in 1.2 mi North 11.5 mph - 0.00 in Snow Light Snow
9:28 PM 17.6 °F 4.3 °F 14.0 °F 86% 30.03 in 2.5 mi North 12.7 mph - 0.00 in Snow Light Snow
9:36 PM 17.6 °F 3.2 °F 14.0 °F 86% 30.02 in 0.8 mi North 15.0 mph - 0.00 in Snow Light Snow
9:51 PM 17.6 °F 3.7 °F 14.0 °F 86% 30.03 in 1.0 mi North 13.8 mph - 0.00 in Snow Light Snow
9:52 PM 17.1 °F 3.6 °F 14.0 °F 88% 30.17 in 1.0 mi North 12.7 mph - 0.00 in Snow Light Snow
10:01 PM 17.6 °F 3.7 °F 14.0 °F 86% 30.03 in 3.0 mi North 13.8 mph - 0.00 in Snow Light Snow
10:22 PM 15.8 °F 0.9 °F 12.2 °F 86% 30.03 in 7.0 mi North 15.0 mph - 0.00 in   Mostly Cloudy
10:53 PM 16.0 °F 1.1 °F 12.9 °F 88% 30.16 in 8.0 mi North 15.0 mph - 0.00 in   Mostly Cloudy
11:53 PM 17.1 °F 3.6 °F 14.0 °F 88% 30.15 in 10.0 mi North 12.7 mph - N/A   Overcast